Wind_Speed
40 40 39 33 31 25 19 20 15 13 15 16 9 9 16 11 10 9 3 1 6 9 8 11 10 6 1 3 4 8 6 2 2 7 8 8 9 12 10 11 11 11 14 11
41 44 41 36 31 25 18 18 17 17 18 18 15 11 13 7 11 12 2 5 4 6 11 13 13 11 8 11 10 11 11 13 10 11 8 9 8 14 16 15 14 13 14 15
44 46 43 38 32 24 21 16 16 19 18 17 19 14 12 13 10 14 8 11 8 5 4 8 15 8 4 9 9 10 16 17 17 14 11 6 11 17 19 21 22 21 22 22
41 42 42 38 31 29 24 17 18 18 17 17 18 18 13 9 17 17 15 13 8 9 5 5 4 4 10 13 14 12 12 12 13 14 13 13 12 17 23 21 24 28 29 31
43 41 41 38 35 32 30 22 21 19 17 18 14 19 20 8 15 14 19 19 15 11 9 8 6 2 1 2 4 9 14 12 11 11 12 14 17 21 23 28 34 37 39 39
48 47 46 44 40 36 35 29 22 20 17 19 10 20 18 14 9 12 12 20 20 17 16 12 8 7 5 6 7 10 14 15 20 17 12 14 15 19 23 27 31 36 37 38
53 49 52 49 45 42 37 37 23 21 17 19 14 18 16 19 15 13 11 18 18 22 19 19 19 21 19 10 6 11 13 15 19 27 21 11 10 11 13 17 20 25 29 31
54 54 56 55 50 46 38 36 27 25 21 20 18 18 20 19 25 16 14 17 26 26 28 24 25 27 22 17 11 13 14 17 21 24 16 14 21 22 20 22 25 26 22 18
61 58 61 60 54 48 41 38 33 27 25 20 20 21 25 21 26 24 18 16 22 25 27 26 29 28 24 24 22 17 22 21 26 25 11 17 21 22 17 20 20 11 9 14
71 66 68 65 61 53 49 45 39 31 29 24 24 25 26 24 26 28 24 20 22 29 30 27 25 25 26 25 22 24 25 22 25 24 19 18 19 16 18 18 19 1 8 15
79 76 78 72 67 65 58 51 45 41 36 31 28 28 31 29 29 31 29 27 25 30 30 34 31 29 28 29 27 25 26 21 23 23 24 20 16 16 20 24 26 18 25 29
76 77 81 77 76 73 68 59 52 43 40 39 36 32 33 35 33 31 32 31 29 29 30 34 36 32 28 28 25 24 22 23 26 22 21 17 17 12 23 28 30 26 26 29
72 73 72 76 81 78 74 68 61 52 45 40 40 34 39 39 36 33 33 32 32 33 31 30 31 32 32 31 29 28 27 25 24 19 20 23 25 19 29 32 34 34 30 30
61 67 69 71 76 79 80 75 68 61 49 43 41 41 43 44 38 35 34 35 37 36 36 35 35 34 34 31 30 30 28 26 22 27 33 29 23 32 36 40 46 47 42 37
50 56 62 71 72 75 76 78 76 68 58 49 47 44 46 45 40 41 38 38 41 42 42 38 38 37 36 34 32 32 30 28 29 35 23 23 28 37 39 51 53 52 48 37
40 46 49 58 69 73 74 74 76 75 67 60 55 49 46 45 44 43 43 41 44 47 45 42 42 41 37 36 37 36 33 33 34 35 34 30 27 32 40 53 59 50 36 29
30 38 45 48 57 66 70 74 72 74 73 68 62 56 52 49 48 45 47 48 49 49 49 44 45 44 39 37 39 39 38 36 36 33 35 38 39 36 40 51 49 57 58 60
26 28 36 45 52 55 63 71 72 71 71 72 69 62 59 56 53 51 49 51 51 50 51 48 45 41 39 36 38 36 36 36 34 37 36 38 46 47 50 60 64 63 67 67
28 27 29 36 48 50 53 64 73 73 70 70 72 68 64 62 60 59 54 52 52 53 54 50 47 44 41 40 39 34 35 34 36 39 45 45 47 47 55 62 62 66 66 66
29 30 28 32 36 48 55 59 66 74 73 70 68 69 67 66 66 63 59 54 54 56 56 53 49 46 41 37 33 33 35 32 35 40 46 52 58 60 58 53 54 53 52 50
30 30 34 29 34 37 54 59 65 67 72 71 68 65 66 67 64 65 62 59 58 58 58 56 53 47 42 37 32 33 33 32 34 40 44 50 52 50 54 57 56 55 55 52
35 33 31 37 37 35 46 58 66 62 64 66 69 64 62 66 68 68 68 65 63 62 61 58 54 50 47 40 33 29 25 27 38 49 46 49 52 54 57 54 56 61 56 41
42 40 40 33 40 43 43 52 61 63 65 64 65 64 62 63 69 72 72 71 69 65 63 58 56 51 45 38 32 27 23 27 34 55 52 51 57 60 62 60 58 47 37 45
51 48 42 42 42 41 40 45 56 59 63 65 60 62 65 64 65 72 75 74 72 71 69 63 58 53 47 36 35 33 25 25 31 40 49 57 65 60 59 52 44 36 38 42
56 56 53 49 47 41 39 40 46 53 62 64 64 63 67 65 63 69 74 76 74 74 72 68 64 55 46 39 42 37 36 35 37 37 49 53 53 49 46 40 39 42 43 45
64 64 61 57 56 48 39 41 45 57 65 67 66 63 63 63 63 64 70 74 77 76 77 75 69 62 53 49 48 45 42 45 42 42 49 57 61 57 48 41 42 47 47 52
Wind_Direction
274 280 283 289 294 301 301 292 301 295 298 300 288 261 237 243 187 173 229 313 218 218 226 214 202 175 221 14 114 144 159 153 317 327 309 273 274 250 244 252 264 269 284 278
266 269 279 283 288 294 299 289 288 288 292 295 285 253 229 228 202 188 201 218 222 205 216 218 218 219 250 280 269 255 250 258 267 278 290 273 267 255 263 265 263 258 263 286
263 266 273 277 281 288 295 301 280 275 281 281 282 273 223 214 227 205 199 218 234 207 226 207 208 230 314 338 318 297 271 261 264 261 260 280 277 277 268 272 271 269 274 279
263 266 270 273 277 279 280 289 275 272 267 270 274 280 267 246 230 221 215 207 231 241 202 203 143 23 7 353 343 348 329 299 283 279 274 267 263 278 273 286 287 281 290 292
261 262 266 265 265 270 272 277 275 266 261 264 277 282 286 250 216 227 214 220 229 238 208 193 144 95 66 309 349 348 2 355 329 314 302 278 258 256 269 282 292 294 293 292
254 255 257 258 259 261 267 266 267 268 259 266 270 274 275 272 244 248 229 220 235 231 219 198 208 209 265 262 338 334 339 12 20 3 329 298 282 279 282 296 296 296 295 288
250 250 252 253 254 256 258 264 261 264 250 254 257 263 260 274 265 249 239 214 223 227 231 221 241 270 277 236 321 343 333 338 357 3 359 350 348 332 322 323 319 307 298 297
251 252 254 255 253 254 254 258 258 254 247 241 248 249 256 262 266 259 245 231 227 242 239 246 250 264 259 245 265 287 310 321 320 330 347 353 336 329 319 316 315 313 316 317
245 246 251 255 255 254 251 252 249 244 248 236 241 247 252 239 257 260 253 245 234 232 252 253 247 253 253 248 261 294 309 315 316 322 318 341 332 336 335 325 326 341 24 10
244 244 249 252 255 253 253 247 241 230 233 227 232 242 246 247 246 253 254 250 239 228 234 241 243 251 253 256 275 290 299 305 309 306 302 311 342 355 6 351 351 118 22 355
245 244 247 249 251 252 248 246 243 231 223 222 224 234 243 244 245 246 248 251 247 230 233 237 239 246 258 261 277 291 297 304 307 308 301 304 313 341 1 356 351 337 321 317
247 245 246 247 249 251 251 247 244 236 228 223 220 225 237 241 240 245 243 245 243 246 239 241 245 251 258 262 275 287 292 298 303 306 319 313 306 316 344 349 345 337 334 329
248 247 246 246 247 249 250 250 247 242 231 224 222 221 230 232 238 240 245 245 245 248 249 246 250 252 258 264 273 282 283 292 298 306 322 321 315 302 328 337 336 328 328 332
244 245 244 244 246 245 246 248 248 244 233 226 222 223 231 233 231 236 239 243 245 246 250 250 252 255 254 258 264 275 279 282 280 292 305 312 315 312 316 322 322 323 323 326
249 246 241 241 243 245 245 244 246 246 243 229 223 224 228 235 231 234 234 239 247 249 249 250 251 256 259 263 270 275 280 286 291 303 286 296 300 308 313 309 311 315 321 332
261 254 247 246 241 242 243 243 242 242 241 238 230 225 228 233 231 234 234 236 243 248 249 252 255 257 263 266 273 278 279 279 288 289 280 270 279 293 304 302 302 306 310 309
264 261 256 251 246 239 241 244 243 241 239 237 235 229 227 232 234 229 235 235 239 245 250 250 254 261 266 268 272 276 278 281 282 278 277 281 283 278 286 284 295 300 305 304
276 261 258 253 253 245 238 241 242 243 242 237 235 232 231 231 235 233 232 237 239 244 248 248 252 260 259 259 264 270 274 279 277 273 273 284 289 290 286 289 294 295 301 304
292 282 260 257 253 249 244 240 241 240 239 240 237 232 230 230 232 237 233 235 240 244 249 249 251 253 256 260 267 275 276 283 274 279 282 282 289 292 287 290 291 294 300 300
301 290 284 259 254 250 247 242 242 240 238 237 237 234 230 230 231 234 237 234 238 242 246 250 251 252 255 258 269 273 278 283 278 281 288 293 296 297 301 300 296 302 300 304
334 303 288 281 255 249 247 247 244 239 240 238 236 235 232 230 232 235 236 237 237 241 244 247 249 251 256 260 264 269 276 278 286 291 297 298 290 298 300 301 303 302 306 310
330 331 304 285 281 266 250 245 246 243 241 241 236 235 231 229 228 233 235 236 238 241 242 246 249 250 252 257 261 268 270 274 282 278 287 291 290 295 302 302 303 301 305 303
318 318 331 312 282 279 268 246 244 241 238 237 239 234 232 229 226 227 231 233 236 239 243 244 247 251 252 251 252 244 253 290 272 259 280 290 291 288 290 296 304 303 303 304
317 311 314 321 313 281 278 254 244 240 238 239 235 236 233 229 228 227 229 233 234 237 241 242 244 246 250 248 241 233 253 257 259 269 282 281 285 289 290 296 300 297 299 319
302 306 306 309 306 308 280 255 246 234 234 238 236 232 234 230 226 227 228 231 233 236 240 244 244 243 244 242 240 238 250 247 257 257 269 274 278 280 290 294 287 286 290 308
293 298 300 299 299 312 277 259 243 235 231 233 236 235 231 232 229 228 229 229 234 235 237 240 243 245 240 240 240 246 244 250 250 251 263 265 271 273 282 285 280 284 293 310
Height
10953 10953 10952 10957 10958 10958 10959 10960 10960 10959 10957 10958 10960 10961 10962 10966 10965 10966 10968 10967 10967 10968 10969 10969 10971 10971 10971 10971 10970 10968 10967 10967 10967 10968 10968 10969 10970 10969 10968 10967 10967 10967 10966 10966
10947 10947 10946 10951 10953 10953 10954 10956 10956 10955 10953 10953 10954 10956 10959 10963 10963 10964 10966 10967 10967 10967 10967 10968 10969 10970 10971 10970 10969 10968 10967 10966 10965 10966 10965 10965 10966 10967 10966 10966 10964 10964 10963 10963
10939 10938 10940 10943 10946 10948 10949 10952 10952 10951 10951 10950 10949 10951 10955 10958 10959 10961 10963 10965 10965 10966 10966 10966 10967 10968 10968 10967 10968 10967 10965 10963 10962 10962 10961 10961 10962 10963 10962 10962 10962 10961 10960 10959
10930 10933 10932 10937 10941 10941 10944 10948 10947 10948 10948 10947 10946 10946 10949 10954 10955 10958 10959 10961 10963 10963 10963 10964 10963 10964 10963 10964 10965 10964 10962 10959 10958 10956 10956 10957 10958 10959 10959 10958 10957 10956 10955 10954
10920 10923 10925 10928 10932 10934 10936 10942 10942 10943 10944 10943 10945 10943 10943 10949 10951 10953 10955 10958 10959 10960 10962 10961 10960 10961 10963 10963 10963 10962 10960 10957 10955 10953 10952 10952 10953 10954 10954 10954 10953 10951 10948 10946
10908 10912 10915 10918 10923 10927 10928 10933 10938 10940 10941 10939 10942 10939 10940 10943 10945 10947 10949 10953 10954 10957 10958 10959 10958 10957 10958 10958 10959 10958 10959 10956 10954 10951 10949 10948 10948 10949 10950 10949 10946 10944 10941 10938
10893 10898 10900 10906 10913 10917 10922 10924 10933 10937 10938 10936 10938 10935 10938 10937 10939 10943 10945 10948 10950 10952 10954 10955 10956 10956 10957 10956 10956 10956 10956 10956 10954 10951 10948 10947 10946 10946 10946 10944 10941 10937 10933 10931
10883 10886 10886 10892 10901 10907 10914 10917 10925 10929 10933 10933 10933 10932 10933 10933 10931 10937 10941 10943 10946 10946 10949 10951 10952 10954 10955 10954 10953 10953 10952 10952 10951 10951 10950 10948 10946 10943 10941 10938 10934 10930 10926 10923
10869 10873 10872 10876 10886 10896 10904 10908 10914 10921 10925 10929 10929 10928 10926 10929 10927 10931 10935 10937 10939 10942 10943 10945 10947 10949 10949 10950 10951 10950 10950 10948 10947 10947 10946 10946 10943 10939 10936 10934 10929 10926 10923 10922
10852 10860 10858 10864 10870 10882 10889 10895 10902 10910 10916 10921 10923 10923 10922 10924 10924 10924 10927 10931 10933 10935 10937 10939 10941 10942 10944 10945 10945 10945 10946 10945 10943 10941 10941 10940 10939 10936 10933 10931 10927 10925 10921 10919
10836 10845 10842 10852 10859 10861 10871 10882 10889 10897 10903 10909 10914 10917 10916 10918 10918 10919 10921 10922 10926 10928 10931 10933 10934 10936 10938 10939 10940 10940 10940 10938 10937 10936 10935 10935 10933 10930 10927 10925 10923 10922 10918 10914
10819 10829 10832 10840 10842 10847 10855 10867 10875 10886 10894 10898 10902 10906 10907 10909 10910 10911 10913 10916 10917 10920 10923 10926 10927 10930 10932 10933 10934 10934 10934 10932 10931 10931 10929 10927 10924 10922 10919 10918 10916 10914 10911 10907
10802 10812 10819 10821 10827 10832 10839 10851 10860 10871 10880 10892 10894 10897 10892 10896 10901 10904 10905 10909 10911 10912 10915 10918 10920 10923 10924 10926 10928 10928 10928 10927 10926 10922 10921 10920 10919 10916 10912 10908 10907 10906 10903 10900
10781 10791 10800 10806 10807 10815 10823 10833 10841 10852 10866 10877 10886 10885 10885 10886 10891 10895 10897 10898 10900 10902 10906 10910 10911 10913 10917 10919 10921 10922 10922 10920 10918 10916 10913 10914 10913 10910 10907 10900 10898 10896 10893 10891
10769 10775 10780 10786 10791 10797 10805 10816 10825 10837 10850 10863 10871 10877 10876 10879 10884 10885 10887 10889 10889 10891 10894 10898 10901 10903 10906 10910 10913 10914 10914 10912 10910 10905 10900 10904 10907 10904 10901 10892 10890 10889 10885 10884
10756 10760 10765 10768 10774 10781 10789 10794 10805 10815 10829 10841 10852 10863 10870 10870 10873 10875 10877 10879 10878 10878 10883 10888 10890 10893 10899 10903 10904 10904 10905 10903 10900 10898 10893 10891 10892 10895 10895 10884 10879 10883 10879 10875
10746 10746 10750 10755 10756 10766 10772 10775 10787 10796 10807 10820 10833 10847 10855 10859 10861 10864 10865 10866 10866 10869 10871 10878 10881 10885 10891 10895 10895 10894 10894 10893 10892 10893 10888 10885 10883 10883 10884 10876 10873 10871 10870 10868
10735 10737 10737 10740 10740 10749 10760 10759 10766 10778 10789 10800 10813 10828 10839 10846 10850 10852 10854 10855 10857 10859 10860 10866 10872 10878 10881 10883 10883 10884 10884 10883 10885 10884 10882 10880 10876 10876 10873 10870 10867 10864 10862 10860
10726 10726 10727 10728 10728 10733 10745 10747 10749 10757 10768 10779 10793 10808 10820 10829 10834 10837 10843 10846 10846 10848 10849 10855 10861 10865 10870 10873 10875 10877 10877 10878 10879 10876 10874 10874 10871 10868 10865 10860 10857 10854 10852 10850
10717 10716 10717 10717 10718 10721 10722 10729 10732 10739 10748 10759 10772 10788 10803 10812 10817 10823 10829 10836 10837 10837 10839 10843 10848 10853 10858 10863 10868 10870 10871 10871 10868 10868 10866 10862 10857 10855 10854 10851 10848 10843 10840 10838
10709 10705 10704 10705 10708 10709 10709 10711 10713 10720 10732 10744 10756 10769 10786 10797 10806 10812 10818 10822 10825 10826 10829 10831 10837 10845 10852 10857 10860 10861 10860 10859 10863 10858 10854 10849 10846 10845 10842 10839 10835 10830 10828 10824
10701 10699 10694 10693 10693 10696 10694 10692 10695 10708 10717 10730 10740 10753 10767 10776 10787 10793 10800 10806 10811 10813 10816 10823 10832 10837 10840 10846 10850 10851 10851 10855 10854 10846 10844 10842 10835 10832 10832 10830 10827 10822 10819 10815
10692 10688 10685 10684 10680 10678 10676 10679 10680 10689 10701 10710 10723 10736 10748 10757 10766 10772 10778 10788 10795 10800 10804 10811 10818 10825 10830 10837 10841 10841 10841 10847 10845 10838 10834 10828 10824 10820 10821 10821 10816 10811 10808 10804
10678 10675 10673 10669 10666 10665 10664 10663 10665 10670 10680 10691 10706 10717 10725 10736 10746 10754 10761 10769 10779 10784 10788 10797 10804 10810 10817 10826 10827 10829 10832 10831 10830 10830 10826 10817 10809 10809 10807 10807 10804 10802 10796 10791
10659 10659 10657 10655 10650 10654 10652 10652 10654 10659 10667 10676 10685 10695 10705 10718 10729 10735 10745 10753 10760 10767 10774 10781 10789 10797 10806 10812 10813 10817 10817 10815 10815 10815 10812 10805 10802 10800 10797 10796 10793 10788 10783 10777
10640 10639 10640 10641 10635 10644 10641 10641 10642 10645 10649 10658 10669 10679 10692 10702 10713 10721 10730 10738 10743 10749 10754 10763 10773 10782 10789 10794 10798 10802 10803 10804 10803 10801 10799 10795 10792 10791 10790 10787 10781 10776 10770 10765